Weather in Shevchenko

Russia / Republic of Adygea     44˚53′49″N   39˚31′22″E
temp.,
°C
wind,
m/s
gust,
m/s
humid.,
%
clouds,
%
prec.,
mm/h
press.,
hPa
HPBL,
m
17 january, sun
sun1700:00−2˚ne61084100 0.0 1013373
03:00−2˚ene71380100 0.0 1010522
06:00−1˚ene91585100 0.0 1006619
09:00ene111796100 2.7 1003907
12:00ene91599100 3.4 1002684
15:00+1˚ene71295100 5.6 1000412
18:00+2˚ene61096100 0.7 1001306
21:00+2˚e5996100 0.9 1002238
18 january, mon
mon1800:00+1˚s35100100 0.3 1004190
03:00−3˚w81293100 0.6 1006416
06:00−5˚w81191100 0.0 1010561
09:00−5˚wnw61088100 0.1 1013547
12:00−4˚wnw358778 0.0 1015599
15:00−2˚wnw458589 0.1 1016682
18:00−3˚wnw2389100 0.0 1017173
21:00−4˚wnw1291100 0.0 101853
19 january, tue
tue1900:00−4˚wnw2392100 0.0 101986
03:00−4˚s229199 0.0 101946
06:00−4˚sse129281 0.2 101835
09:00−3˚w6127190 1.1 1019429
12:00−3˚wnw578176 0.0 1019570
15:00−3˚wnw688388 0.1 1018758
18:00−5˚wnw369399 0.3 1020418
21:00−6˚wnw369195 0.4 1022243
20 january, wed
wed2000:00−7˚wnw359373 0.0 1022194
03:00−7˚nw129287 0.0 1023143
06:00−7˚nnw2293100 0.0 1024216
09:00−7˚ne119399 0.0 1025123
12:00−5˚w228396 0.0 1026460
15:00−4˚w357879 0.0 1026612
18:00−6˚nw12871 0.0 102831
21:00−7˚s11877 0.0 102929
21 january, thu
thu2100:00−7˚s11880 0.0 103027
03:00−6˚e118631 0.0 103025
06:00−6˚ese238969 0.0 103047
09:00−5˚ese348650 0.0 1031114
12:00−1˚ese348037 0.0 1030190
15:00+1˚ese238925 0.0 1029134
18:00+2˚ssw4109074 0.1 1030289
21:00s488853 0.1 1030154